Temperature
3 4 4 4 4 4 3 3 3 4 4 3 2 2 1 1 1 0 -0 -1 -1 -1 -1 -1 -1 -1 -2 -2 -2 -2 -2 -2 -2 -3 -3 -3 -3 -3 -3 -3 -3 -3 -3 -3
2 3 3 3 3 3 3 3 3 3 3 2 2 1 1 0 -0 -1 -1 -1 -1 -2 -2 -2 -2 -2 -2 -2 -2 -2 -3 -3 -3 -3 -3 -3 -3 -3 -3 -4 -4 -4 -4 -4
1 2 2 2 2 2 2 2 2 2 1 0 0 -0 -0 -1 -1 -2 -2 -2 -2 -2 -2 -2 -3 -3 -3 -3 -3 -3 -3 -3 -4 -4 -4 -4 -4 -4 -4 -4 -4 -4 -4 -4
0 1 1 1 1 2 1 0 0 -0 -1 -1 -1 -2 -2 -2 -3 -3 -3 -3 -3 -3 -3 -3 -3 -3 -3 -3 -3 -4 -4 -4 -4 -4 -5 -5 -5 -5 -5 -5 -5 -5 -5 -5
-0 0 1 1 -0 -1 -1 -1 -1 -1 -2 -2 -2 -2 -3 -3 -3 -4 -4 -4 -4 -4 -4 -4 -4 -4 -4 -4 -4 -4 -5 -5 -5 -5 -5 -5 -5 -6 -6 -6 -5 -5 -5 -5
-0 0 0 -1 -2 -1 -1 -2 -3 -2 -3 -3 -3 -3 -4 -4 -4 -4 -4 -5 -5 -5 -4 -4 -4 -5 -5 -5 -5 -5 -5 -5 -5 -5 -6 -6 -6 -6 -6 -6 -6 -6 -6 -6
-1 -1 -1 -3 -2 -1 -2 -3 -4 -3 -4 -4 -5 -5 -5 -5 -5 -5 -5 -5 -5 -5 -5 -5 -5 -5 -5 -6 -6 -6 -6 -6 -6 -6 -6 -6 -6 -7 -7 -7 -7 -7 -7 -7
-2 -2 -2 -4 -3 -4 -4 -4 -4 -5 -5 -5 -6 -6 -6 -6 -6 -6 -6 -6 -6 -6 -6 -6 -6 -6 -6 -6 -6 -6 -6 -6 -6 -6 -7 -7 -7 -7 -7 -8 -8 -8 -8 -8
-3 -3 -4 -5 -5 -5 -5 -5 -6 -6 -6 -6 -7 -7 -7 -7 -7 -7 -7 -7 -7 -7 -7 -7 -7 -7 -7 -7 -7 -7 -7 -7 -7 -7 -7 -8 -8 -8 -8 -8 -9 -9 -9 -9
-4 -5 -5 -5 -6 -6 -6 -6 -7 -7 -7 -7 -7 -8 -8 -8 -8 -8 -8 -8 -8 -8 -8 -7 -7 -7 -8 -8 -8 -8 -8 -8 -8 -8 -8 -8 -8 -9 -9 -9 -9 -9 -9 -9
-5 -6 -6 -7 -7 -7 -7 -7 -7 -8 -8 -8 -8 -9 -9 -9 -9 -9 -9 -9 -9 -8 -8 -8 -8 -8 -8 -8 -8 -8 -8 -8 -8 -8 -9 -9 -9 -9 -9 -9 -10 -10 -10 -10
-7 -7 -7 -8 -8 -8 -8 -8 -9 -9 -9 -9 -9 -10 -10 -10 -10 -10 -10 -9 -9 -9 -9 -9 -9 -9 -9 -9 -9 -9 -9 -9 -9 -9 -9 -10 -10 -10 -10 -10 -10 -10 -10 -10
-8 -8 -8 -9 -9 -9 -9 -9 -9 -9 -10 -10 -10 -10 -10 -10 -10 -10 -10 -10 -10 -10 -10 -10 -10 -9 -10 -10 -10 -10 -10 -10 -10 -10 -10 -10 -10 -11 -11 -10 -11 -11 -11 -11
-8 -8 -9 -9 -10 -10 -10 -10 -10 -10 -10 -10 -11 -11 -11 -11 -11 -11 -11 -11 -11 -10 -10 -10 -10 -10 -10 -10 -10 -10 -10 -10 -10 -11 -11 -11 -11 -11 -11 -11 -11 -11 -11 -11
-9 -9 -10 -10 -10 -10 -10 -10 -10 -11 -11 -11 -11 -11 -11 -11 -11 -11 -11 -11 -11 -11 -11 -11 -11 -11 -11 -11 -11 -11 -11 -11 -11 -11 -11 -11 -12 -12 -12 -12 -12 -12 -12 -12
-10 -10 -10 -10 -11 -11 -11 -11 -11 -11 -11 -11 -11 -11 -11 -12 -12 -11 -11 -12 -12 -12 -12 -12 -12 -12 -12 -12 -12 -12 -12 -12 -12 -12 -12 -12 -12 -12 -12 -13 -12 -12 -12 -12
-11 -11 -11 -11 -11 -11 -11 -11 -11 -11 -12 -12 -12 -12 -12 -12 -12 -12 -12 -12 -12 -12 -12 -12 -12 -12 -12 -12 -12 -12 -12 -12 -12 -12 -12 -13 -13 -13 -13 -13 -13 -13 -13 -13
-11 -11 -11 -11 -11 -11 -11 -11 -11 -12 -12 -12 -12 -12 -12 -12 -12 -12 -12 -12 -12 -12 -12 -13 -13 -13 -13 -13 -13 -13 -13 -13 -13 -13 -13 -13 -13 -13 -13 -13 -13 -13 -13 -13
-11 -11 -11 -11 -11 -12 -12 -12 -12 -12 -12 -12 -12 -12 -12 -13 -13 -13 -13 -13 -13 -13 -13 -13 -13 -13 -13 -13 -13 -13 -13 -13 -13 -13 -13 -13 -13 -13 -13 -13 -13 -13 -14 -14
-11 -11 -11 -11 -12 -12 -12 -12 -12 -12 -12 -13 -13 -13 -13 -13 -13 -13 -13 -13 -13 -13 -13 -13 -13 -13 -13 -13 -13 -13 -13 -13 -13 -14 -14 -14 -14 -14 -14 -14 -14 -14 -14 -14
-12 -12 -12 -12 -12 -12 -12 -12 -12 -13 -13 -13 -13 -13 -13 -13 -13 -13 -13 -13 -13 -14 -13 -13 -13 -13 -13 -14 -14 -14 -14 -14 -14 -14 -14 -14 -14 -14 -14 -14 -14 -14 -14 -14
-12 -12 -12 -12 -12 -12 -12 -13 -13 -13 -13 -13 -13 -13 -13 -13 -13 -14 -14 -14 -14 -14 -14 -14 -14 -14 -14 -14 -14 -14 -14 -14 -14 -14 -14 -14 -14 -14 -14 -14 -14 -14 -14 -14
-12 -12 -12 -12 -13 -13 -13 -13 -13 -13 -13 -13 -13 -14 -14 -14 -14 -14 -14 -14 -14 -14 -14 -14 -14 -14 -14 -14 -14 -14 -14 -14 -14 -14 -14 -14 -14 -14 -14 -14 -14 -14 -15 -15
-12 -12 -13 -13 -13 -13 -13 -13 -13 -14 -14 -14 -14 -14 -14 -14 -14 -14 -14 -14 -14 -14 -14 -14 -14 -14 -14 -14 -14 -14 -14 -14 -14 -15 -15 -15 -15 -15 -15 -15 -15 -15 -15 -15
-13 -13 -13 -13 -13 -13 -14 -14 -14 -14 -14 -14 -14 -14 -14 -15 -15 -14 -14 -14 -15 -15 -15 -15 -15 -15 -15 -15 -15 -15 -15 -15 -15 -15 -15 -15 -15 -15 -15 -15 -15 -15 -15 -15
-13 -13 -13 -14 -14 -14 -14 -14 -14 -14 -14 -14 -14 -15 -15 -15 -15 -15 -15 -15 -15 -15 -15 -15 -15 -15 -15 -15 -15 -15 -15 -15 -15 -15 -15 -15 -15 -15 -15 -15 -15 -15 -15 -15
-14 -14 -14 -14 -14 -14 -14 -15 -15 -15 -15 -15 -15 -15 -15 -15 -15 -15 -15 -15 -15 -15 -15 -15 -15 -15 -15 -15 -15 -15 -15 -15 -15 -15 -15 -15 -15 -15 -15 -15 -15 -15 -15 -15
Wind_Speed
8 8 5 7 8 7 9 8 7 6 5 3 2 1 1 1 2 2 2 2 1 1 1 2 3 3 3 3 3 4 4 4 3 3 3 3 3 3 3 3 2 2 2 2
6 6 6 7 7 8 9 9 9 8 6 3 3 3 3 3 2 2 1 1 2 1 1 2 2 3 3 3 3 4 4 3 3 4 3 3 3 3 3 2 2 2 2 2
4 3 5 5 5 7 5 4 4 6 5 3 4 4 3 3 3 3 3 3 2 2 1 1 2 3 3 3 3 3 3 3 3 4 3 3 3 3 3 2 2 2 2 2
3 2 6 3 2 1 2 0 1 2 3 4 4 4 4 5 5 4 5 4 4 3 2 2 2 2 3 3 3 3 3 3 3 3 3 2 3 3 2 2 2 2 2 2
3 4 5 1 3 2 1 1 4 4 4 5 5 3 4 8 7 5 4 3 3 2 2 2 2 2 3 3 3 3 3 2 2 3 2 2 2 2 1 1 1 1 2 2
3 4 4 1 4 5 1 1 6 6 5 4 5 2 2 6 7 6 6 4 4 3 3 2 2 3 3 2 2 2 2 2 1 2 2 2 2 1 1 1 1 1 1 2
5 4 2 3 5 3 1 2 6 6 5 4 3 2 2 5 6 5 5 5 4 4 3 2 2 3 3 3 2 2 2 2 1 2 2 2 1 1 1 1 1 1 1 2
3 4 3 5 4 2 1 3 5 5 5 4 4 3 4 5 5 5 5 5 5 4 3 3 3 3 3 2 2 2 2 2 1 1 1 1 2 1 1 1 1 1 1 1
2 2 1 3 3 3 3 3 5 5 4 3 3 3 4 5 5 5 5 5 4 4 4 4 3 3 2 2 2 2 2 2 1 1 1 1 1 1 1 1 1 1 1 1
2 1 2 4 5 7 6 5 5 5 4 4 3 4 4 4 5 5 5 5 4 4 3 3 3 3 2 2 2 2 2 2 1 1 1 1 0 0 1 1 1 2 2 1
2 2 2 3 5 6 6 6 5 5 5 4 4 4 4 4 5 5 5 5 4 4 3 3 3 3 3 2 2 2 2 1 1 1 1 1 1 1 1 1 2 2 2 2
3 2 2 3 4 4 4 5 5 5 5 5 4 3 4 4 4 4 5 4 4 4 3 3 3 3 2 2 2 2 1 1 1 1 1 0 0 2 3 2 3 3 3 3
1 3 2 2 3 4 4 4 5 4 4 4 4 4 3 3 4 4 4 5 4 4 4 3 3 4 3 2 2 1 1 1 1 1 1 1 0 0 1 2 3 3 3 4
2 2 2 2 3 4 4 4 4 4 4 4 4 4 3 3 4 4 4 4 4 4 3 3 4 4 3 3 2 2 1 1 1 1 1 1 1 1 0 1 1 2 3 4
3 2 1 2 2 3 3 3 3 4 4 4 4 3 3 3 4 4 4 4 4 4 4 3 4 4 4 3 2 2 1 1 1 1 1 1 1 1 1 1 1 2 2 3
3 3 2 2 3 3 3 3 2 3 3 3 3 3 3 3 3 4 4 4 3 4 4 4 3 3 3 3 3 2 2 3 2 1 1 1 1 1 1 1 1 1 2 2
2 2 3 3 3 3 3 3 2 2 2 3 3 3 3 3 3 4 4 4 3 3 4 4 3 4 3 3 2 2 2 2 3 2 1 1 1 1 1 1 1 2 2 3
1 2 2 2 2 2 3 3 2 2 2 2 2 2 3 3 3 4 4 4 4 4 4 4 3 3 3 3 2 2 1 1 1 1 1 1 1 1 1 1 2 2 2 3
3 2 2 2 2 1 2 2 2 2 2 2 2 2 2 3 3 3 4 4 4 4 4 4 5 4 3 3 3 1 1 2 2 2 1 3 2 1 1 2 2 2 2 3
3 3 3 3 3 2 2 2 2 2 3 2 2 2 3 3 3 3 3 3 3 3 4 4 4 3 3 3 4 1 1 2 2 2 2 2 2 2 2 2 2 3 3 3
3 3 3 3 3 3 2 2 2 2 3 2 2 3 3 4 4 3 3 4 4 4 4 6 4 3 3 4 4 1 2 2 2 2 2 2 2 2 3 3 3 3 3 3
2 2 2 2 2 3 3 3 2 2 2 3 3 3 3 4 4 4 3 3 4 7 5 3 3 4 6 5 2 1 2 2 2 2 2 3 3 3 3 3 3 4 3 3
2 2 2 2 2 3 3 3 3 2 3 3 3 4 4 4 4 4 5 4 4 7 5 3 5 8 8 4 2 2 2 2 2 3 3 3 3 3 3 4 4 4 4 4
2 2 2 2 2 2 3 4 3 3 3 3 3 3 3 4 4 3 3 7 9 8 5 6 9 9 8 3 2 2 2 3 3 3 3 3 3 3 3 4 4 4 4 5
1 2 2 2 2 2 3 3 3 3 3 3 4 3 3 3 3 4 4 5 8 8 5 7 10 10 5 3 2 2 2 3 3 3 3 3 4 4 4 4 4 5 5 5
1 1 1 2 2 2 3 3 3 3 4 4 4 4 4 3 4 4 4 5 6 8 6 4 5 6 4 3 3 3 3 4 5 4 4 4 4 5 4 5 5 5 5 6
2 2 2 2 2 2 2 3 3 4 4 4 5 5 5 4 4 5 5 5 5 5 4 4 4 4 4 3 3 3 3 3 4 4 4 4 4 5 5 6 6 6 6 7
Wind_Direction
275 282 273 262 256 242 229 232 240 260 268 281 290 309 343 58 79 85 85 75 76 92 120 122 124 132 129 132 135 134 136 143 148 143 143 142 144 145 144 150 157 160 161 173
280 271 268 270 260 248 245 246 253 270 277 339 9 29 32 46 52 39 45 47 46 57 92 120 128 130 128 130 131 133 138 140 138 141 142 144 149 149 145 149 156 161 177 186
270 302 305 263 248 230 228 241 241 255 277 342 354 1 12 29 36 20 20 17 14 21 59 98 124 135 143 141 132 134 139 141 142 141 143 150 154 150 153 162 165 172 185 196
274 292 243 234 13 20 190 198 12 4 6 10 3 358 37 42 34 23 17 12 3 6 25 46 79 108 121 124 127 131 137 142 141 138 141 147 151 155 164 163 175 191 201 215
231 248 261 271 8 2 263 282 15 359 2 9 1 25 52 29 25 17 11 4 5 10 26 43 63 95 103 106 112 117 123 131 138 142 142 144 155 164 162 161 189 215 212 214
233 243 246 328 345 331 347 244 13 9 7 6 12 13 346 2 11 12 13 13 18 20 34 44 51 86 99 101 106 116 120 117 125 135 147 156 158 161 156 172 202 229 240 230
238 244 260 4 330 346 126 286 349 5 10 14 16 356 336 356 7 13 13 12 19 25 35 34 50 80 93 91 92 87 86 95 105 118 135 144 136 144 159 184 192 232 249 255
226 236 257 11 20 38 329 349 5 11 16 22 21 16 12 12 8 12 15 16 16 26 31 34 53 75 83 71 62 75 80 82 82 90 116 125 131 155 178 182 193 219 238 269
208 220 31 45 49 30 20 10 6 9 11 21 13 7 11 11 11 11 13 13 18 29 36 35 42 63 77 51 63 73 70 62 61 53 51 113 154 177 185 191 202 227 230 253
303 331 29 41 43 27 25 21 8 9 8 16 14 12 10 9 11 12 12 12 18 25 35 29 33 38 52 52 65 78 70 48 50 64 51 41 1 227 203 210 222 237 240 247
280 320 22 42 23 12 14 18 17 15 17 22 28 13 7 5 5 5 5 8 13 17 24 22 27 33 30 38 66 71 60 43 27 27 55 29 343 310 274 241 242 243 230 239
276 325 313 317 350 10 13 10 11 11 15 22 25 12 8 4 3 2 359 0 5 12 15 11 15 18 24 37 63 71 42 24 16 15 9 6 4 352 343 322 301 294 287 279
280 344 358 332 8 16 11 8 11 14 15 10 14 18 12 5 3 3 358 357 359 359 3 6 6 6 9 28 34 37 26 347 331 332 320 305 298 306 340 346 334 319 303 295
13 31 1 2 0 358 7 15 18 19 22 23 20 17 13 9 5 360 352 350 350 355 360 6 9 1 359 15 23 21 9 340 345 337 327 310 291 280 263 293 322 325 315 310
13 20 338 344 2 1 6 12 16 14 18 19 22 17 11 3 354 347 344 344 351 359 1 6 5 354 355 4 11 9 355 344 348 348 336 318 307 295 286 288 292 304 319 318
358 9 17 15 4 357 3 5 7 359 3 4 7 5 358 352 346 342 344 352 1 356 349 350 346 342 350 357 3 359 347 341 346 342 331 317 301 285 284 280 284 293 300 310
12 347 340 337 342 347 351 351 356 350 353 352 349 350 353 354 352 347 344 348 351 341 336 335 335 341 347 351 353 344 345 341 338 337 328 313 306 296 292 285 284 291 296 296
351 324 311 303 310 327 337 350 360 359 348 337 345 353 352 348 339 335 338 344 346 344 338 337 342 343 343 345 342 337 345 336 323 314 313 301 297 284 280 282 285 291 296 296
5 0 356 356 353 345 335 335 343 351 346 347 352 344 334 328 325 328 339 346 339 331 329 331 337 344 338 329 332 331 329 315 309 304 296 289 304 302 291 286 286 286 289 295
8 12 16 17 18 12 346 340 348 350 345 348 355 351 344 336 332 331 333 328 311 300 307 321 328 326 324 313 322 328 314 299 295 294 292 286 286 288 285 284 282 283 287 287
3 5 6 6 3 0 351 345 348 342 341 353 351 334 329 329 332 331 327 321 321 319 320 324 329 317 309 306 312 310 291 288 286 281 277 275 277 279 277 277 281 283 283 283
353 356 354 354 357 352 348 349 344 343 349 349 344 336 332 329 328 325 314 301 314 324 328 320 315 306 310 317 323 303 290 285 284 284 278 273 271 273 275 277 277 280 280 278
349 357 356 350 342 336 344 348 345 345 341 335 331 326 321 318 321 320 317 321 320 322 327 317 312 314 317 327 321 300 293 286 280 276 277 277 274 274 275 276 276 276 275 275
355 354 346 341 351 356 345 339 341 339 329 322 323 321 320 319 317 311 302 316 325 323 324 320 321 320 323 331 310 291 283 281 278 274 274 275 274 272 272 273 276 277 274 272
351 346 347 350 346 331 325 330 337 339 339 334 330 327 318 308 304 310 315 319 322 324 323 323 324 324 327 313 297 286 283 278 275 275 270 273 274 273 272 272 273 276 277 275
343 333 328 327 327 328 332 335 333 333 333 330 328 325 321 318 314 314 316 317 316 320 322 317 316 318 317 307 298 293 288 291 294 291 282 278 275 273 273 274 274 274 274 273
342 344 346 345 344 339 333 331 326 324 324 319 316 320 324 325 322 321 319 319 319 318 316 314 310 307 305 301 298 294 290 288 286 285 284 281 278 275 274 273 274 273 273 272
Height
1449 1446 1446 1446 1446 1446 1449 1448 1449 1442 1441 1444 1444 1445 1445 1445 1445 1446 1446 1446 1446 1446 1446 1447 1448 1449 1450 1451 1452 1454 1455 1456 1458 1459 1461 1462 1464 1465 1467 1468 1470 1471 1473 1474
1451 1445 1445 1445 1444 1444 1444 1444 1443 1442 1443 1445 1445 1445 1445 1445 1445 1445 1446 1445 1445 1445 1445 1446 1446 1447 1448 1449 1450 1451 1452 1454 1455 1457 1458 1459 1460 1462 1463 1465 1466 1468 1469 1470
1453 1446 1446 1446 1444 1443 1443 1444 1444 1445 1447 1446 1446 1446 1446 1445 1445 1445 1445 1445 1444 1444 1444 1444 1445 1445 1446 1447 1448 1449 1450 1451 1453 1454 1455 1456 1457 1458 1460 1461 1463 1464 1465 1466
1455 1452 1454 1446 1442 1441 1442 1445 1445 1446 1447 1447 1447 1447 1446 1446 1446 1445 1445 1445 1444 1443 1443 1443 1444 1444 1445 1446 1446 1447 1448 1449 1450 1451 1452 1454 1454 1456 1457 1458 1460 1461 1462 1463
1456 1452 1445 1445 1446 1446 1445 1446 1448 1447 1447 1447 1446 1444 1446 1446 1446 1446 1445 1444 1443 1443 1442 1442 1442 1443 1443 1444 1445 1446 1447 1447 1448 1449 1450 1451 1452 1453 1454 1455 1456 1457 1458 1459
1454 1452 1447 1450 1449 1446 1446 1449 1450 1448 1448 1448 1446 1448 1449 1447 1446 1445 1444 1443 1442 1441 1441 1441 1441 1441 1441 1442 1443 1444 1444 1445 1446 1447 1448 1448 1449 1451 1452 1453 1453 1454 1455 1456
1454 1452 1450 1454 1449 1446 1452 1453 1452 1450 1449 1449 1449 1451 1450 1447 1446 1445 1443 1442 1442 1441 1440 1440 1440 1440 1440 1440 1441 1442 1443 1443 1444 1445 1445 1446 1447 1448 1449 1450 1450 1451 1451 1452
1455 1453 1455 1454 1452 1455 1456 1454 1452 1451 1450 1449 1449 1449 1448 1447 1445 1444 1443 1442 1441 1440 1439 1439 1439 1439 1439 1439 1440 1440 1441 1442 1442 1443 1443 1444 1445 1445 1446 1447 1447 1447 1448 1448
1456 1458 1456 1455 1455 1455 1454 1453 1452 1451 1450 1449 1448 1448 1447 1446 1445 1444 1443 1442 1441 1440 1439 1439 1439 1438 1438 1438 1439 1439 1439 1440 1440 1441 1441 1442 1442 1442 1443 1444 1444 1444 1444 1444
1456 1456 1456 1456 1455 1455 1454 1453 1452 1451 1450 1449 1448 1447 1446 1445 1444 1443 1442 1441 1440 1439 1438 1438 1438 1438 1438 1438 1438 1437 1437 1438 1438 1438 1439 1439 1440 1440 1441 1441 1441 1441 1441 1441
1457 1457 1456 1455 1455 1455 1453 1452 1451 1450 1449 1448 1447 1446 1445 1444 1443 1442 1441 1440 1439 1438 1437 1437 1437 1436 1437 1436 1436 1436 1436 1436 1436 1436 1437 1437 1438 1438 1438 1439 1439 1439 1438 1438
1459 1458 1458 1457 1455 1454 1453 1452 1451 1449 1448 1447 1446 1445 1444 1443 1442 1441 1440 1439 1438 1437 1436 1436 1435 1435 1435 1435 1435 1434 1434 1434 1434 1435 1435 1435 1435 1436 1436 1436 1436 1436 1436 1436
1458 1457 1457 1456 1455 1454 1452 1451 1450 1449 1447 1446 1445 1444 1443 1442 1441 1440 1440 1439 1437 1436 1436 1435 1434 1434 1434 1434 1433 1433 1433 1433 1433 1433 1433 1433 1433 1433 1433 1433 1433 1433 1433 1433
1457 1456 1455 1454 1454 1453 1452 1450 1449 1448 1447 1446 1445 1443 1442 1441 1440 1439 1439 1438 1437 1436 1435 1434 1433 1433 1432 1432 1432 1431 1431 1431 1431 1431 1431 1431 1431 1430 1430 1430 1429 1429 1430 1430
1456 1455 1455 1453 1452 1451 1450 1449 1448 1447 1446 1445 1444 1443 1442 1440 1439 1438 1438 1437 1436 1435 1434 1433 1432 1432 1431 1431 1430 1430 1430 1429 1429 1429 1429 1429 1428 1428 1428 1428 1427 1427 1426 1426
1454 1454 1453 1452 1451 1450 1448 1448 1446 1446 1445 1444 1443 1442 1441 1440 1439 1438 1437 1436 1435 1433 1432 1432 1431 1430 1430 1429 1429 1428 1428 1428 1428 1427 1427 1427 1426 1426 1426 1426 1425 1425 1424 1424
1453 1452 1451 1450 1449 1449 1448 1447 1446 1445 1444 1443 1442 1441 1440 1439 1438 1437 1436 1435 1434 1433 1432 1430 1430 1429 1428 1428 1427 1427 1426 1426 1426 1426 1425 1425 1425 1424 1424 1424 1423 1422 1422 1422
1453 1452 1451 1450 1449 1448 1447 1446 1445 1444 1443 1442 1441 1440 1439 1438 1437 1436 1435 1434 1433 1432 1431 1430 1429 1428 1427 1426 1426 1425 1425 1424 1424 1424 1424 1423 1423 1423 1422 1422 1421 1420 1420 1420
1451 1450 1450 1449 1448 1447 1446 1445 1444 1443 1442 1441 1440 1439 1438 1437 1436 1435 1434 1432 1431 1430 1429 1428 1427 1426 1425 1425 1424 1423 1423 1423 1422 1422 1422 1421 1421 1420 1420 1419 1419 1418 1418 1417
1450 1449 1449 1448 1447 1446 1445 1444 1443 1442 1441 1440 1439 1438 1437 1436 1435 1434 1433 1431 1430 1429 1428 1427 1426 1425 1424 1423 1422 1422 1421 1421 1420 1420 1419 1419 1418 1418 1417 1417 1416 1416 1415 1414
1449 1449 1448 1447 1446 1446 1445 1444 1442 1441 1440 1439 1438 1437 1436 1435 1434 1433 1431 1430 1429 1428 1427 1425 1424 1423 1422 1421 1421 1420 1419 1419 1418 1417 1417 1416 1416 1415 1415 1414 1414 1413 1412 1411
1449 1448 1448 1447 1446 1445 1444 1443 1442 1440 1439 1438 1437 1436 1435 1434 1432 1431 1430 1429 1428 1426 1425 1423 1422 1421 1420 1420 1418 1418 1417 1416 1416 1415 1414 1414 1413 1413 1412 1411 1410 1410 1409 1408
1449 1448 1447 1446 1445 1444 1443 1442 1440 1439 1438 1437 1436 1435 1434 1432 1431 1430 1428 1428 1426 1425 1423 1421 1420 1419 1418 1417 1416 1415 1414 1414 1413 1412 1412 1411 1410 1409 1409 1408 1407 1406 1405 1404
1447 1447 1446 1445 1444 1443 1441 1440 1439 1438 1437 1436 1435 1434 1432 1431 1429 1428 1427 1425 1424 1423 1421 1419 1418 1417 1416 1414 1413 1413 1412 1411 1410 1409 1408 1408 1407 1406 1405 1404 1403 1402 1401 1400
1446 1446 1445 1444 1442 1441 1440 1439 1438 1437 1436 1435 1433 1432 1431 1429 1428 1426 1425 1423 1421 1420 1418 1417 1415 1414 1413 1411 1411 1410 1409 1408 1407 1406 1405 1404 1403 1402 1401 1400 1399 1398 1397 1396
1445 1444 1443 1443 1442 1441 1439 1438 1437 1436 1434 1433 1432 1430 1429 1427 1426 1424 1422 1420 1419 1417 1415 1414 1412 1411 1410 1408 1407 1406 1405 1404 1404 1402 1401 1400 1399 1398 1397 1396 1395 1394 1392 1391
1444 1443 1442 1441 1440 1439 1438 1437 1436 1434 1433 1431 1430 1428 1427 1425 1423 1421 1420 1418 1416 1414 1412 1411 1409 1408 1406 1405 1404 1403 1402 1401 1400 1399 1397 1396 1395 1394 1392 1391 1390 1389 1387 1386